Location: Brookview Estates
(36.0476°N, 86.6931°W)
Time: 12:56:27
(UTC+00:00)

Meteor 1-19 Rocket - Pass Details

Date: 30 March 2020
Orbit: 814 x 921 km, 81.2° (Epoch: 27 May)

Event Time Altitude Azimuth Distance (km) Brightness Sun altitude
Exits shadow 09:45:34 10° 179° (S) 2,581 6.5 -22.3°
Reaches altitude 10° 09:45:40 10° 179° (S) 2,539 6.5 -22.2°
Maximum altitude 09:51:25 72° 96° (E) 912 4.4 -21.2°
Drops below altitude 10° 09:57:02 10° 13° (NNE) 2,482 7.1 -20.1°
Sets 09:59:25 0° 12° (NNE) 3,406 7.8 -19.7°
